Location: G�ndlingen
(48.0142°N, 7.6396°E)
Time: 17:46:02
(UTC+00:00)

Cosmos 1076 Rocket - Pass Details

Date: 05 July 2020
Orbit: 589 x 613 km, 82.5° (Epoch: 12 August)

Event Time Altitude Azimuth Distance (km) Brightness Sun altitude
Exits shadow 21:36:07 24° 143° (SE) 1,243 4.5 -14.5°
Maximum altitude 21:38:04 39° 92° (E) 911 4.2 -14.7°
Drops below altitude 10° 21:42:04 10° 24° (NNE) 1,944 6.7 -15.0°
Sets 21:44:22 0° 17° (NNE) 2,848 7.7 -15.1°
